BEIDOU 9

Last updated on July 16, 2019, 4:08 a.m. UTC

1 37763U 11038A   19196.73513971 -.00000032  00000-0  10000-3 0  9991
2 37763  54.4339 188.5742 0065780 226.0927 237.9768  1.00280991 29299
UTC
Height (km)
Latitude
Longitude
Inclination
Orbital Period
UTC large
Height (km)
Speed (km/s)
/
Latitude / Longitude
Inclination (degrees)
Orbital Period (minutes)
Azimuth
Elevation
Range (km)
Doppler Factor
iOS Compass Heading
iOS Angle

Next 30 passes for location: Hong Kong

Rise time Rise Azimuth (degrees) Set time Set Azimuth (degrees) Duration Max altitude (degrees)

No matching passes for this satellites